Change the Weather History Date:

Tuesday, December 2, 2014

  Actual Average Record
Temperature  
Mean Temperature 29 °F 36 °F  
Max Temperature 32 °F 42 °F 61 °F (1975)
Min Temperature 25 °F 30 °F -2 °F (1919)
Degree Days  
Heating Degree Days 36 29  
Month to date heating degree days 79 58  
Since 1 July heating degree days 1057 1298  
Cooling Degree Days 0 0  
Month to date cooling degree days 0 0  
Year to date cooling degree days 1095 807  
Moisture  
Dew Point 23 °F    
Average Humidity 82    
Maximum Humidity 88    
Minimum Humidity 75    
Precipitation  
Precipitation 0.00 in 0.03 in 0.54 in (1962)
Month to date precipitation T 0.07  
Year to date precipitation 10.27 11.41  
Snow  
Snow 0.00 in 0.10 in 1.00 in (1955)
Month to date snowfall T 0.2  
Since 1 July snowfall T 2.0  
Snow Depth 0.00 in    
Sea Level Pressure  
Sea Level Pressure 30.25 in    
Wind  
Wind Speed 1 mph (South)    
Max Wind Speed 7 mph    
Max Gust Speed 7 mph    
Visibility 10 miles    
Events      
T = Trace of Precipitation, MM = Missing Value Source: NWS Daily Summary

Daily Weather History Graph

Daily Weather History Graph

Search for Another Location

Airport or City:

Trip Planner

Search our weather history database for the weather conditions in past years. The results will help you decide how hot, cold, wet, or windy it might be!

Date:

Astronomy

Dec. 02, 2014 Rise Set
Actual Time 7:12 AM PST 4:02 PM PST
Civil Twilight 6:37 AM PST 4:37 PM PST
Nautical Twilight 6:00 AM PST 5:14 PM PST
Astronomical Twilight 5:23 AM PST 5:50 PM PST
Moon 1:59 PM PST 2:45 AM PST
Length of Visible Light 9h 59m
Length of Day
8h 50m
Waxing Gibbous, 85% of the Moon is Illuminated
Dec 2
Waxing Gibbous
Dec 6
Full
Dec 14
Last Quarter
Dec 21
New
Dec 28
First Quarter

Hourly Weather History & Observations

Time (PST) Temp. Windchill Dew Point Humidity Pressure Visibility Wind Dir Wind Speed Gust Speed Precip Events Conditions
12:56 AM 25.0 °F - 21.0 °F 85% 30.29 in 10.0 mi Calm Calm - N/A   Overcast
1:51 AM 24.8 °F - 21.2 °F 86% 30.24 in 10.0 mi Calm Calm - N/A   Overcast
1:56 AM 26.1 °F - 21.0 °F 81% 30.30 in 10.0 mi Calm Calm - N/A   Overcast
2:56 AM 25.0 °F 20.7 °F 21.0 °F 85% 30.30 in 10.0 mi SSE 3.5 mph - N/A   Overcast
3:04 AM 25.0 °F - 19.9 °F 81% 30.23 in 10.0 mi Calm Calm - N/A   Overcast
3:56 AM 26.1 °F - 21.0 °F 81% 30.29 in 10.0 mi Calm Calm - N/A   Overcast
4:56 AM 25.0 °F - 21.0 °F 85% 30.28 in 10.0 mi Calm Calm - N/A   Overcast
5:56 AM 26.1 °F - 21.0 °F 81% 30.30 in 10.0 mi Calm Calm - N/A   Overcast
6:56 AM 26.1 °F - 21.9 °F 84% 30.31 in 10.0 mi Calm Calm - N/A   Overcast
7:26 AM 26.1 °F - 21.0 °F 81% 30.25 in 10.0 mi Calm Calm - N/A   Overcast
7:56 AM 26.1 °F - 21.0 °F 81% 30.31 in 10.0 mi Calm Calm - N/A   Overcast
8:17 AM 26.1 °F 21.9 °F 21.0 °F 81% 30.26 in 10.0 mi South 3.5 mph - N/A   Overcast
8:56 AM 27.0 °F - 21.0 °F 78% 30.33 in 10.0 mi Calm Calm - N/A   Overcast
9:56 AM 28.9 °F - 21.9 °F 75% 30.32 in 10.0 mi Calm Calm - N/A   Overcast
10:07 AM 28.4 °F - 21.2 °F 74% 30.26 in 10.0 mi Calm Calm - N/A   Overcast
10:56 AM 28.9 °F - 23.0 °F 78% 30.30 in 10.0 mi Calm Calm - N/A   Overcast
11:56 AM 30.9 °F - 24.1 °F 76% 30.29 in 10.0 mi Calm Calm - N/A   Overcast
12:56 PM 30.9 °F - 25.0 °F 79% 30.26 in 10.0 mi Calm Calm - N/A   Overcast
1:56 PM 30.9 °F 26.2 °F 25.0 °F 79% 30.24 in 10.0 mi Variable 4.6 mph - N/A   Overcast
2:56 PM 30.9 °F - 26.1 °F 82% 30.24 in 10.0 mi Calm Calm - N/A   Overcast
3:21 PM 30.9 °F - 26.1 °F 82% 30.18 in 10.0 mi Calm Calm - N/A   Overcast
3:56 PM 30.9 °F - 26.1 °F 82% 30.22 in 10.0 mi Calm Calm - N/A   Overcast
4:56 PM 30.9 °F - 26.1 °F 82% 30.20 in 10.0 mi Calm Calm - N/A   Overcast
5:56 PM 30.9 °F 26.2 °F 26.1 °F 82% 30.18 in 10.0 mi ENE 4.6 mph - N/A   Overcast
6:56 PM 30.9 °F 27.5 °F 26.1 °F 82% 30.18 in 10.0 mi NE 3.5 mph - N/A   Overcast
7:56 PM 30.9 °F - 26.1 °F 82% 30.18 in 9.0 mi Calm Calm - N/A   Overcast
8:56 PM 30.0 °F - 27.0 °F 88% 30.17 in 10.0 mi Calm Calm - N/A   Overcast
9:56 PM 30.0 °F 26.5 °F 27.0 °F 88% 30.16 in 10.0 mi WSW 3.5 mph - N/A   Overcast
10:56 PM 30.0 °F 25.2 °F 26.1 °F 85% 30.17 in 10.0 mi WSW 4.6 mph - N/A   Overcast
11:56 PM 28.9 °F 23.9 °F 27.0 °F 92% 30.16 in 10.0 mi SW 4.6 mph - N/A   Overcast